• Join FlightAware (Why Join?)
  • Login
  • US Flag 
08:19PM EST


 

Airport Tracker/Info


-or-


 

Live Flight TrackerFlight Track Log ✈ N682RW ✈ 21-Mar-2014 ✈ KDTW - KMSP

Flight Track Log - Related Links

Times and Time Zones

All times are in EDT time to prevent confusion due to time zone crossing. See the N682RW flight status page for this flight to view local times or setup timezone preferences in your user account.

Time Position Orientation Groundspeed Altitude Reporting Facility
EDT Latitude Longitude Course Direction KTS MPH feet Rate Location/Type
02:55PM 42.1925 -83.3539 231° Southwest 177 204 1,400  Level Cleveland Center
02:57PM 42.1511 -83.4222 231° Southwest 234 269 4,500 3,045 Climbing Cleveland Center
02:57PM 42.1489 -83.4267 236° Southwest 247 284 4,800 3,600 Climbing Cleveland Center
02:57PM 42.1558 -83.5008 277° West 260 299 7,800 3,344 Climbing Cleveland Center
02:58PM 42.1606 -83.5111 302° West 254 292 8,200 2,783 Climbing Cleveland Center
02:59PM 42.2000 -83.5936 303° West 261 300 11,000 2,544 Climbing Cleveland Center
03:00PM 42.2397 -83.6939 298° West 292 336 13,500 2,400 Climbing Cleveland Center
03:01PM 42.2814 -83.8061 297° West 326 375 16,000 2,661 Climbing Cleveland Center
03:02PM 42.3247 -83.9217 297° West 341 392 19,000 3,000 Climbing Cleveland Center
03:03PM 42.3661 -84.0331 297° West 335 386 22,200 2,613 Climbing Cleveland Center
03:04PM 42.4083 -84.1431 297° West 330 380 24,400 2,226 Climbing Cleveland Center
03:05PM 42.4308 -84.2881 282° West 326 375 26,800 1,887 Climbing Cleveland Center
03:06PM 42.4336 -84.4150 272° West 339 390 28,300 1,839 Climbing Cleveland Center
03:07PM 42.4356 -84.5389 271° West 334 384 30,600 1,790 Climbing Cleveland Center
03:08PM 42.4400 -84.6581 273° West 323 372 32,000 672 Climbing Cleveland Center
03:09PM 42.4425 -84.7839 272° West 327 376 32,000  Level Cleveland Center
03:10PM 42.4458 -84.9094 272° West 331 381 32,000  Level Cleveland Center
03:11PM 42.4486 -85.0597 271° West 332 382 32,000  Level Cleveland Center
03:12PM 42.4519 -85.1856 272° West 334 384 32,000  Level Cleveland Center
03:13PM 42.4644 -85.3094 278° West 332 382 32,000  Level Cleveland Center
03:14PM 42.5044 -85.4231 296° West 335 386 32,000  Level Cleveland Center
03:15PM 42.5472 -85.5358 297° West 335 386 32,000  Level Cleveland Center
03:16PM 42.5886 -85.6492 296° West 335 386 32,000  Level Cleveland Center
03:17PM 42.6314 -85.7647 297° West 334 384 32,000  Level Minneapolis Center
03:18PM 42.6819 -85.9003 297° West 334 384 32,000  Level Minneapolis Center
03:20PM 42.7406 -86.0603 297° West 336 387 32,000  Level Chicago Center
03:21PM 42.7822 -86.1756 296° West 336 387 32,000  Level Chicago Center
03:22PM 42.8250 -86.2897 297° West 336 387 32,000  Level Chicago Center
03:23PM 42.8669 -86.4036 297° West 336 387 32,000  Level Chicago Center
03:24PM 42.9086 -86.5192 296° West 338 389 32,000  Level Chicago Center
03:25PM 42.9497 -86.6361 296° West 340 391 32,000  Level Chicago Center
03:26PM 42.9919 -86.7503 297° West 339 390 32,000  Level Chicago Center
03:27PM 43.0322 -86.8644 296° West 334 384 32,000  Level Chicago Center
03:28PM 43.0814 -87.0042 296° West 336 387 32,000  Level Chicago Center
03:29PM 43.1231 -87.1186 297° West 337 388 32,000  Level Chicago Center
03:30PM 43.1636 -87.2356 295° West 340 391 32,000  Level Chicago Center
03:31PM 43.2042 -87.3514 296° West 340 391 32,000  Level Chicago Center
03:32PM 43.2464 -87.4733 295° West 338 389 32,000  Level Chicago Center
03:33PM 43.2875 -87.5883 296° West 337 388 32,000  Level Chicago Center
03:34PM 43.3269 -87.7033 295° West 336 387 32,000  Level Chicago Center
03:35PM 43.3750 -87.8428 295° West 337 388 32,000  Level Chicago Center
03:36PM 43.4139 -87.9572 295° West 336 387 32,000  Level Chicago Center
03:37PM 43.4533 -88.0725 295° West 336 387 32,000  Level Chicago Center
03:38PM 43.4925 -88.1878 295° West 336 387 32,000  Level Chicago Center
03:39PM 43.5308 -88.3033 295° West 337 388 32,000  Level Chicago Center
03:40PM 43.5769 -88.4383 295° West 335 386 32,000  Level Chicago Center
03:41PM 43.6153 -88.5519 295° West 335 386 32,000  Level Chicago Center
03:42PM 43.6542 -88.6678 295° West 337 388 32,000  Level Chicago Center
03:43PM 43.6928 -88.7839 295° West 336 387 32,000  Level Chicago Center
03:44PM 43.7389 -88.9225 295° West 333 383 32,000  Level Chicago Center
03:46PM 43.7775 -89.0397 295° West 335 386 32,000  Level Chicago Center
03:47PM 43.8156 -89.1572 294° West 336 387 32,000  Level Chicago Center
03:48PM 43.8556 -89.2747 295° West 336 387 32,000  Level Chicago Center
03:49PM 43.8919 -89.3928 293° West 336 387 32,000  Level Chicago Center
03:50PM 43.9297 -89.5108 294° West 336 387 32,000  Level Chicago Center
03:51PM 43.9747 -89.6519 294° West 335 386 32,000  Level Chicago Center
03:52PM 44.0153 -89.7694 296° West 335 386 32,000  Level Chicago Center
03:53PM 44.0664 -89.8836 302° West 346 398 32,000  Level Chicago Center
03:54PM 44.1139 -89.9989 300° West 345 397 32,000  Level Chicago Center
03:55PM 44.1625 -90.1106 301° West 342 394 32,000  Level Chicago Center
03:56PM 44.2206 -90.2478 301° West 342 394 32,000 -242 Level Chicago Center
03:57PM 44.2686 -90.3633 300° West 342 394 31,500 -581 Descending Chicago Center
03:58PM 44.3178 -90.4800 301° West 348 400 30,800 -624 Descending Chicago Center
03:59PM 44.3664 -90.5964 300° West 348 400 30,200 -682 Descending Chicago Center
04:00PM 44.4261 -90.7411 300° West 358 412 29,300 -692 Descending Minneapolis Center
04:01PM 44.4769 -90.8642 300° West 362 417 28,700 -1,024 Descending Minneapolis Center
04:02PM 44.5264 -90.9842 300° West 367 422 27,200 -1,452 Descending Minneapolis Center
04:03PM 44.5772 -91.1092 300° West 368 423 25,700 -1,645 Descending Minneapolis Center
04:04PM 44.6389 -91.2606 300° West 370 426 23,800 -1,610 Descending Minneapolis Center
04:05PM 44.6861 -91.3767 300° West 356 410 22,400 -1,415 Descending Minneapolis Center
04:06PM 44.7317 -91.4908 299° West 342 394 20,900 -1,452 Descending Minneapolis Center
04:07PM 44.7775 -91.6042 300° West 335 386 19,400 -1,561 Descending Minneapolis Center
04:08PM 44.8239 -91.7203 299° West 336 387 17,700 -1,707 Descending Minneapolis Center
04:09PM 44.8697 -91.8369 299° West 338 389 15,900 -1,887 Descending Minneapolis Center
04:10PM 44.9242 -91.9692 300° West 331 381 13,800 -1,887 Descending Minneapolis Center
04:11PM 44.9667 -92.0789 299° West 324 373 12,000 -1,366 Descending Minneapolis Center
04:12PM 45.0097 -92.1872 299° West 320 368 11,000 -537 Descending Minneapolis Center
04:13PM 45.0464 -92.2981 295° West 320 368 10,900 -387 Descending Minneapolis Center
04:15PM 45.0250 -92.4058 254° West 286 329 10,200 -968 Descending Minneapolis Center
04:16PM 44.9853 -92.4919 237° Southwest 263 303 8,900 -1,366 Descending Minneapolis Center
04:17PM 44.9492 -92.5764 239° Southwest 256 295 7,400 -976 Descending Minneapolis Center
04:18PM 44.9067 -92.6756 239° Southwest 248 285 6,900 -871 Descending Minneapolis Center
04:19PM 44.8714 -92.7553 238° Southwest 241 277 5,600 -1,113 Descending Minneapolis Center
04:20PM 44.8356 -92.8322 237° Southwest 236 272 4,600 -726 Descending Minneapolis Center
04:21PM 44.8061 -92.8947 236° Southwest 196 226 4,100 -341 Descending Minneapolis Center
04:22PM 44.7989 -92.9628 262° West 182 209 3,900 -195 Descending Minneapolis Center
04:23PM 44.8011 -93.0244 273° West 162 186 3,700 -532 Descending Minneapolis Center
04:24PM 44.8192 -93.0767 296° West 124 143 2,800 -677 Descending Minneapolis Center
04:25PM 44.8361 -93.1150 302° West 120 138 2,300 -532 Descending Minneapolis Center
04:26PM 44.8536 -93.1547 302° West 120 138 1,700 -581 Descending Minneapolis Center
04:28PM 44.8667 -93.2167 295° West  Level FlightAware Approximate
04:35PM 44.8820 -93.2218 295° West  Level Estimated